[[{"header":{"parameterUnit":"m.s-1","parameterCategory":1,"la1":30.2991,"la2":30.254,"lo1":-89.0895,"lo2":-89.0444,"dy":0.0017,"dx":0.0017,"nx":28,"ny":28,"refTime":"2025-09-12T21:00:00:Z","depth":0,"parameterNumber":2,"parameterNumberName":"U-component_of_WINDS"},"data":[0,0,0,0,0,0,0,0,0,0,0,0,0,0,0,0,0,0,0,0,0,0,0,0,0,0,0,0,0,0,0,0,0,0,0,0,0,0,0,0,0,0,0,0,0,0,0,0,0,0,0,0,0,0,0,0,0,0,1.2127,1.2127,0,1.212,1.2119,1.2119,1.2048,1.2047,1.2045,1.2043,1.2036,1.2038,1.2039,0,0,0,0,0,0,0,0,0,0,0,0,0,1.2081,1.2083,1.2127,1.2127,1.2127,1.212,1.2119,1.2119,1.2049,1.2046,1.2044,1.2042,1.2036,1.2037,1.2039,0,0,0,0,0,0,0,0,0,0,0,0,0,1.209,1.2083,1.2127,1.2091,1.2087,1.212,1.2119,1.2119,1.2049,1.2046,1.2044,1.2041,1.2035,1.2037,1.2039,1.2106,0,0,1.2046,1.2047,0,0,0,0,0,0,0,0,1.209,1.2092,1.2096,1.2093,1.209,1.2082,1.2101,1.2115,1.205,1.2064,1.2043,1.204,1.2054,1.2054,1.2059,1.2106,1.2105,1.2046,1.2048,1.2049,1.2049,0,0,0,0,0,0,0,1.2089,1.2092,1.2124,1.2096,1.2092,1.2075,1.2073,1.2103,1.2074,1.2062,1.2057,1.2057,1.2051,1.2057,1.2058,1.2105,1.2046,1.2048,1.2049,1.205,1.2207,1.221,0,0,0,0,0,0,1.2094,1.2092,1.2124,1.2124,1.2083,1.2078,1.2076,1.2087,1.2073,1.2068,1.2059,1.2054,1.2054,1.2055,1.2057,1.2135,1.2048,1.2051,1.2052,1.2204,1.2208,1.2211,0,0,0,0,0,0,1.2093,1.2097,1.2125,1.2107,1.2109,1.2082,1.2095,1.2089,1.2094,1.2071,1.2065,1.207,1.2052,1.2054,1.2094,1.2133,1.2052,1.2054,1.2201,1.2205,1.2209,1.229,0,0,0,0,0,0,1.2092,1.2098,1.2122,1.2108,1.211,1.2162,1.2097,1.209,1.2098,1.209,1.208,1.2075,1.205,1.2092,1.2097,1.2135,1.2055,1.2197,1.2203,1.2208,1.2284,1.2296,1.2307,0,0,0,0,0,1.2091,1.2146,1.2124,1.2128,1.2141,1.2164,1.2166,1.2135,1.2101,1.2126,1.2111,1.2076,1.2128,1.2096,1.2101,1.2141,1.2195,1.2201,1.2208,1.2278,1.2294,1.2307,0,0,0,0,0,0,1.2166,1.2143,1.2119,1.2171,1.217,1.2152,1.2183,1.2153,1.2162,1.2155,1.2117,1.2116,1.2162,1.2155,1.212,1.2205,1.2155,1.2163,1.2207,1.2222,1.2234,1.2234,1.2057,0,0,0,0,0,1.2188,1.2209,1.2188,1.2236,1.2237,1.221,1.2219,1.2196,1.2194,1.2194,1.2182,1.2182,1.2198,1.221,1.2223,1.2282,1.2279,1.2312,1.2324,1.2334,1.2341,1.2372,1.2386,1.2232,1.2232,1.2232,0,0,1.2235,1.2225,1.2241,1.2251,1.2248,1.2271,1.221,1.2237,1.2254,1.2198,1.2235,1.2227,1.2224,1.2274,1.2295,1.227,1.2383,1.2342,1.235,1.2352,1.238,1.2395,1.2408,1.2236,1.2235,1.2235,0,0,1.2332,1.2327,1.2366,1.2364,1.236,1.2342,1.2351,1.2338,1.2331,1.2367,1.2326,1.2345,1.2374,1.2374,1.2377,1.2475,1.2442,1.2481,1.2542,1.2573,1.2585,1.2596,1.2631,1.2644,1.2488,1.2488,1.2488,0,1.2391,1.2424,1.239,1.242,1.2425,1.2375,1.2415,1.2415,1.2416,1.2421,1.2392,1.2428,1.2422,1.2472,1.2495,1.25,1.251,1.2482,1.2586,1.2596,1.2606,1.2639,1.2652,1.2493,1.2492,1.2492,1.2491,0,1.2497,1.252,1.2552,1.2554,1.2563,1.2598,1.2569,1.2583,1.2559,1.2544,1.2582,1.2574,1.2585,1.2595,1.2572,1.2642,1.2626,1.2593,1.2542,1.2626,1.2656,1.2668,1.2499,1.2498,1.2496,1.2495,0,0,1.2641,1.2624,1.2636,1.2636,1.2628,1.2645,1.2678,1.2689,1.2701,1.2703,1.273,1.2756,1.2725,1.2729,1.2705,1.2732,1.281,1.2695,1.2695,1.2717,1.2886,1.2912,1.2927,1.2789,1.2791,1.2793,1.2886,0,1.2735,1.2788,1.2759,1.2817,1.2838,1.2791,1.2819,1.2818,1.2805,1.2821,1.2806,1.2826,1.2783,1.2785,1.281,1.2796,1.2844,1.2788,1.2813,1.2814,1.2815,1.2942,1.2969,1.3058,1.2898,1.29,1.2901,0,1.2851,1.2858,1.2918,1.2906,1.2914,1.294,1.2947,1.2963,1.296,1.2949,1.2954,1.2924,1.2955,1.2906,1.2948,1.2911,1.292,1.2914,1.2917,1.2918,1.2863,1.2947,1.3086,1.3099,1.292,1.2918,1.2917,0,1.2951,1.2975,1.3014,1.3016,1.3003,1.3022,1.3017,1.3012,1.302,1.3027,1.3032,1.3043,1.3049,1.3058,1.3032,1.2998,1.3078,1.3026,1.307,1.307,1.3089,1.3088,1.3231,1.3094,1.3094,1.3094,1.3094,0,1.3058,1.3097,1.3059,1.3083,1.3125,1.3091,1.3134,1.3124,1.3119,1.3141,1.3101,1.3122,1.3087,1.3104,1.3084,1.3123,1.3126,1.3118,1.3112,1.3121,1.3122,1.3126,1.3119,1.3097,1.3097,1.3096,1.3095,0,1.3177,1.3153,1.3192,1.3176,1.3173,1.3205,1.3191,1.3213,1.3197,1.3225,1.323,1.3205,1.3224,1.3199,1.3215,1.3202,1.3254,1.3239,1.3255,1.3251,1.3296,1.3292,1.3446,1.3465,1.3317,1.3319,1.332,0,1.3247,1.3276,1.3263,1.3274,1.3272,1.3291,1.3299,1.3267,1.3277,1.3276,1.3298,1.3314,1.3324,1.3357,1.3341,1.3353,1.3338,1.3391,1.334,1.3348,1.3339,1.3337,1.334,1.3402,1.3404,1.3405,1.3406,0,1.3375,1.3361,1.3374,1.3384,1.3395,1.3401,1.3404,1.3415,1.3382,1.3395,1.3414,1.3422,1.3439,1.3455,1.3463,1.3458,1.3427,1.3422,1.3433,1.3443,1.3451,1.3447,1.3284,1.3419,1.3418,1.3417,1.3416,1.3416,1.3471,1.3494,1.3489,1.3505,1.3504,1.3507,1.3527,1.3513,1.3528,1.3539,1.3519,1.3543,1.3539,1.3547,1.3546,1.3564,1.3541,1.3557,1.3561,1.3565,1.3572,1.3448,1.3566,1.3565,1.3565,1.3565,1.3564,0,1.3597,1.3591,1.3606,1.3611,1.3624,1.3593,1.3594,1.3607,1.3628,1.3627,1.3639,1.366,1.3675,1.366,1.3673,1.369,1.3676,1.3695,1.3693,1.3693,1.3592,1.3582,1.3706,1.3706,1.3706,1.3706,1.3706,1.3706,1.3664,1.3701,1.3687,1.3724,1.3717,1.374,1.3743,1.3747,1.3746,1.3771,1.3784,1.3774,1.3767,1.3779,1.3792,1.3787,1.3793,1.3817,1.3807,1.3714,1.37,1.3686,1.3676,1.3819,1.3819,1.3906,1.3907,1.3907]},{"header":{"parameterUnit":"m.s-1","parameterCategory":1,"la1":30.2991,"la2":30.254,"lo1":-89.0895,"lo2":-89.0444,"dy":0.0017,"dx":0.0017,"nx":28,"ny":28,"refTime":"2025-09-12T21:00:00:Z","depth":0,"parameterNumber":3,"parameterNumberName":"V-component_of_WINDS"},"data":[0,0,0,0,0,0,0,0,0,0,0,0,0,0,0,0,0,0,0,0,0,0,0,0,0,0,0,0,0,0,0,0,0,0,0,0,0,0,0,0,0,0,0,0,0,0,0,0,0,0,0,0,0,0,0,0,0,0,-1.9366,-1.9366,0,-1.9442,-1.9443,-1.9444,-1.9458,-1.9458,-1.9457,-1.9456,-1.9535,-1.9538,-1.954,0,0,0,0,0,0,0,0,0,0,0,0,0,-1.9232,-1.9234,-1.9366,-1.9366,-1.9367,-1.9442,-1.9443,-1.9444,-1.9458,-1.9458,-1.9457,-1.9456,-1.9534,-1.9537,-1.9541,0,0,0,0,0,0,0,0,0,0,0,0,0,-1.9297,-1.9235,-1.9365,-1.9383,-1.9386,-1.9442,-1.9443,-1.9445,-1.9459,-1.9458,-1.9457,-1.9456,-1.9533,-1.9537,-1.9541,-1.9585,0,0,-1.9553,-1.9555,0,0,0,0,0,0,0,0,-1.9294,-1.9302,-1.938,-1.9382,-1.9385,-1.944,-1.9425,-1.9492,-1.9459,-1.9431,-1.9456,-1.9455,-1.9504,-1.9511,-1.9527,-1.9588,-1.9592,-1.9554,-1.9556,-1.9558,-1.9559,0,0,0,0,0,0,0,-1.9289,-1.9299,-1.9396,-1.9381,-1.9384,-1.9388,-1.9396,-1.9438,-1.9472,-1.9433,-1.9435,-1.9443,-1.9505,-1.9523,-1.9529,-1.9593,-1.9554,-1.9557,-1.956,-1.9561,-1.9696,-1.9697,0,0,0,0,0,0,-1.9281,-1.9295,-1.9394,-1.9398,-1.9336,-1.9391,-1.9401,-1.9423,-1.9472,-1.9478,-1.9444,-1.9444,-1.9517,-1.9524,-1.9532,-1.9587,-1.9558,-1.9562,-1.9564,-1.9695,-1.9696,-1.9697,0,0,0,0,0,0,-1.9278,-1.929,-1.939,-1.9347,-1.936,-1.9395,-1.942,-1.9425,-1.9443,-1.948,-1.9486,-1.9456,-1.9516,-1.9526,-1.9572,-1.959,-1.9563,-1.9567,-1.9693,-1.9695,-1.9697,-1.9697,0,0,0,0,0,0,-1.9274,-1.9289,-1.9305,-1.9347,-1.9362,-1.9429,-1.9421,-1.9427,-1.945,-1.945,-1.9492,-1.9498,-1.9516,-1.9566,-1.9576,-1.9595,-1.957,-1.9692,-1.9694,-1.9696,-1.9695,-1.9698,-1.9701,0,0,0,0,0,-1.927,-1.9302,-1.9306,-1.9318,-1.9384,-1.943,-1.9438,-1.9458,-1.9451,-1.9468,-1.9492,-1.9497,-1.9586,-1.957,-1.9582,-1.9602,-1.9691,-1.9693,-1.9696,-1.9694,-1.9698,-1.9701,0,0,0,0,0,0,-1.9261,-1.9308,-1.9313,-1.936,-1.9391,-1.9432,-1.9454,-1.9461,-1.9495,-1.9494,-1.9517,-1.9527,-1.9571,-1.9591,-1.9573,-1.9648,-1.9638,-1.9643,-1.9633,-1.9636,-1.9639,-1.9633,-1.9574,0,0,0,0,0,-1.9264,-1.9297,-1.9337,-1.9374,-1.939,-1.9419,-1.944,-1.9453,-1.9486,-1.9499,-1.9526,-1.9558,-1.9594,-1.9616,-1.9651,-1.9699,-1.9708,-1.9718,-1.9721,-1.9723,-1.9727,-1.9755,-1.976,-1.9706,-1.9706,-1.9706,0,0,-1.9271,-1.9301,-1.9321,-1.9373,-1.9399,-1.9433,-1.943,-1.9466,-1.9492,-1.9504,-1.9549,-1.9571,-1.9608,-1.9655,-1.9677,-1.9673,-1.9745,-1.9727,-1.9728,-1.9731,-1.9758,-1.9764,-1.9768,-1.9708,-1.9707,-1.9707,0,0,-1.9302,-1.9328,-1.9363,-1.9389,-1.9428,-1.9447,-1.9456,-1.9497,-1.9511,-1.9557,-1.9567,-1.9599,-1.9659,-1.9685,-1.9707,-1.975,-1.9756,-1.9761,-1.9775,-1.9802,-1.9806,-1.981,-1.9826,-1.9831,-1.9765,-1.9765,-1.9765,0,-1.9307,-1.9358,-1.938,-1.9416,-1.9439,-1.9452,-1.9488,-1.9512,-1.956,-1.9576,-1.9571,-1.9648,-1.9674,-1.9728,-1.9739,-1.9756,-1.9767,-1.9755,-1.9804,-1.9808,-1.9812,-1.9828,-1.9833,-1.9765,-1.9765,-1.9765,-1.9765,0,-1.9362,-1.9398,-1.9421,-1.9468,-1.9494,-1.9529,-1.9556,-1.958,-1.9591,-1.9612,-1.9659,-1.9691,-1.9733,-1.9747,-1.9758,-1.9803,-1.98,-1.9799,-1.979,-1.9817,-1.9832,-1.9838,-1.9765,-1.9765,-1.9765,-1.9765,0,0,-1.9388,-1.9447,-1.9455,-1.9477,-1.9522,-1.955,-1.9587,-1.9628,-1.9648,-1.9682,-1.9714,-1.9765,-1.9766,-1.979,-1.9804,-1.9828,-1.9861,-1.9825,-1.9826,-1.9831,-1.9914,-1.9914,-1.9921,-1.9866,-1.9867,-1.9868,-1.9911,0,-1.9424,-1.949,-1.9511,-1.9566,-1.96,-1.9614,-1.9647,-1.9678,-1.9699,-1.9731,-1.9754,-1.979,-1.9787,-1.9802,-1.9827,-1.9852,-1.9878,-1.9849,-1.9896,-1.9897,-1.9886,-1.9928,-1.9928,-1.9967,-1.9917,-1.9918,-1.9919,0,-1.9475,-1.951,-1.9568,-1.961,-1.9625,-1.9653,-1.9694,-1.9724,-1.9761,-1.9774,-1.9802,-1.9815,-1.9855,-1.9844,-1.99,-1.988,-1.99,-1.9916,-1.9918,-1.9923,-1.9909,-1.9935,-1.998,-1.9986,-1.9928,-1.9927,-1.9927,0,-1.9489,-1.955,-1.9593,-1.9611,-1.9661,-1.9681,-1.9703,-1.9738,-1.9762,-1.9797,-1.9813,-1.9853,-1.9875,-1.9905,-1.9929,-1.9919,-1.9983,-1.9974,-1.9996,-1.9996,-2.0008,-2.0007,-2.0058,-2.0022,-2.0022,-2.0022,-2.0022,0,-1.9527,-1.9562,-1.96,-1.9626,-1.9667,-1.9691,-1.9731,-1.9753,-1.9785,-1.9817,-1.9832,-1.9862,-1.9891,-1.9925,-1.9944,-1.9988,-1.9997,-2.001,-2.0015,-2.0009,-2.0007,-2.0022,-2.002,-2.0023,-2.0023,-2.0023,-2.0022,0,-1.9548,-1.9575,-1.9623,-1.9667,-1.9679,-1.9707,-1.9744,-1.9771,-1.9793,-1.9833,-1.9844,-1.9878,-1.9919,-1.9946,-1.9998,-2.0011,-2.0059,-2.0063,-2.0046,-2.0049,-2.0069,-2.0067,-2.0132,-2.0142,-2.0099,-2.0099,-2.0099,0,-1.9571,-1.9599,-1.9645,-1.9668,-1.969,-1.9725,-1.975,-1.9776,-1.9801,-1.9846,-1.9867,-1.9909,-1.9944,-2.0009,-2.0039,-2.0079,-2.0084,-2.0104,-2.009,-2.0084,-2.0085,-2.0083,-2.0086,-2.0106,-2.0106,-2.0107,-2.0107,0,-1.9608,-1.962,-1.9655,-1.9696,-1.9725,-1.9758,-1.979,-1.9808,-1.984,-1.9868,-1.9909,-1.9937,-1.999,-2.0032,-2.0075,-2.0099,-2.0108,-2.0111,-2.0119,-2.0113,-2.0102,-2.0109,-2.0053,-2.0109,-2.0109,-2.0109,-2.0109,-2.0109,-1.9631,-1.9657,-1.9694,-1.9733,-1.9761,-1.9791,-1.9819,-1.9845,-1.988,-1.9926,-1.9939,-1.9983,-2.0021,-2.008,-2.0104,-2.014,-2.0137,-2.0148,-2.0151,-2.0153,-2.0153,-2.0097,-2.0148,-2.0148,-2.0148,-2.0147,-2.0147,0,-1.967,-1.9695,-1.973,-1.9776,-1.9807,-1.9814,-1.9851,-1.9877,-1.9915,-1.9949,-1.9983,-2.0033,-2.0074,-2.0107,-2.015,-2.0172,-2.0178,-2.0182,-2.0181,-2.0186,-2.0152,-2.0142,-2.0177,-2.0177,-2.0177,-2.0177,-2.0177,-2.0177,-1.9693,-1.9737,-1.9754,-1.9812,-1.9838,-1.9881,-1.9902,-1.993,-1.9958,-2.0012,-2.0046,-2.0068,-2.0103,-2.0148,-2.0187,-2.0196,-2.0211,-2.0215,-2.0225,-2.0192,-2.0189,-2.0185,-2.0176,-2.0218,-2.0218,-2.0256,-2.0256,-2.0256]}]]